This demonstration page uses our WeatherBlox Daily Observations layout. Learn more.

Left ArrowRight Arrow

39.08367, -84.50855

Hourly Observations for March 22, 2018

Temp ( °F °C ) Dew Point ( °F °C ) Humidity (%) Winds ( mph kmh ) Pressure ( in mb ) Visibility ( mi km ) Precip ( " mm )
12:53 am 00:53 Clear 29 -1.7 25 -3.9 85 85 WNW 6 9 30.19 1022 10 16 N/A
1:53 am 01:53 Clear 28 -2.2 27 -2.8 96 96 N N/A 30.20 1023 10 16 N/A
2:53 am 02:53 Clear 26 -3.3 25 -3.9 96 96 N N/A 30.22 1023 7 11 N/A
3:03 am 03:03 Clear with Mist and Fog 25 -3.9 24 -4.4 96 96 N N/A 30.24 1024 2 3 N/A
3:20 am 03:20 Clear with Mist and Fog 25 -3.9 24 -4.4 96 96 N N/A 30.24 1024 3 4 N/A
3:43 am 03:43 Clear 26 -3.3 25 -3.9 96 96 N N/A 30.24 1024 7 11 N/A
3:53 am 03:53 Clear 25 -3.9 25 -3.9 100 100 N N/A 30.21 1023 7 11 N/A
4:12 am 04:12 Clear with Mist and Fog 23 -5 23 -5 100 100 N N/A 30.24 1024 2 2 N/A
4:34 am 04:34 Clear with Mist and Fog 24 -4.4 23 -5 96 96 N N/A 30.24 1024 3 5 N/A
4:41 am 04:41 Clear with Mist and Fog 24 -4.4 24 -4.4 100 100 N N/A 30.24 1024 2 3 N/A
4:53 am 04:53 Clear with Mist and Fog 23 -5 22 -5.6 96 96 N N/A 30.23 1024 5 8 N/A
5:34 am 05:34 Clear with Mist and Fog 21 -6.1 21 -6.1 100 100 N N/A 30.24 1024 2 3 N/A
5:45 am 05:45 Clear with Mist and Fog 22 -5.6 21 -6.1 96 96 N N/A 30.27 1025 1 1 N/A
5:53 am 05:53 Clear with Mist and Fog 22 -5.6 21 -6.1 96 96 N N/A 30.24 1024 2 3 N/A
5:55 am 05:55 Clear with Mist and Fog 23 -5 22 -5.6 96 96 N N/A 30.27 1025 3 5 N/A
6:53 am 06:53 Clear 23 -5 20 -6.7 88 88 N N/A 30.26 1025 10 16 N/A
7:53 am 07:53 Sunny 27 -2.8 21 -6.1 78 78 N N/A 30.27 1025 10 16 N/A
8:53 am 08:53 Sunny 29 -1.7 25 -3.9 85 85 N N/A 30.30 1026 10 16 N/A
9:53 am 09:53 Sunny 33 0.6 24 -4.4 70 70 NW 7 11 30.32 1027 10 16 N/A
10:53 am 10:53 Sunny 35 1.7 25 -3.9 67 67 W 7 11 30.33 1027 10 16 N/A
11:53 am 11:53 Sunny 36 2.2 26 -3.3 67 67 SSW 3 6 30.34 1027 10 16 N/A
12:53 pm 12:53 Sunny 40 4.4 27 -2.8 60 60 W 9 15 30.33 1027 10 16 N/A
1:53 pm 13:53 Sunny 42 5.6 26 -3.3 53 53 W 13 20 30.34 1027 10 16 N/A
2:53 pm 14:53 Mostly Sunny 43 6.1 22 -5.6 43 43 W 14 22 30.33 1027 10 16 N/A
3:53 pm 15:53 Sunny 44 6.7 21 -6.1 40 40 W 8 13 30.32 1027 10 16 N/A
4:53 pm 16:53 Sunny 45 7.2 23 -5 42 42 NW 8 13 30.30 1026 10 16 N/A
5:53 pm 17:53 Mostly Sunny 45 7.2 23 -5 42 42 NW 9 15 30.30 1026 10 16 N/A
6:53 pm 18:53 Mostly Sunny 44 6.7 22 -5.6 41 41 NW 8 13 30.31 1026 10 16 N/A
7:53 pm 19:53 Clear 41 5 22 -5.6 47 47 N 5 7 30.31 1026 10 16 N/A
8:53 pm 20:53 Clear 35 1.7 27 -2.8 72 72 SSW 3 6 30.31 1027 10 16 N/A
9:53 pm 21:53 Clear 33 0.6 28 -2.2 82 82 N N/A 30.32 1027 10 16 N/A
10:53 pm 22:53 Clear 30 -1.1 27 -2.8 88 88 N N/A 30.32 1027 10 16 N/A
11:53 pm 23:53 Clear 29 -1.7 26 -3.3 89 89 N N/A 30.32 1027 10 16 N/A

Powered by AerisWeather